| time (UTC) | temp C | wind direction | speed KPH | gust KPH | rain 1hr cm | rain 24hr cm | rain mn cm | humidity % | barometer mb |
| 20260506044604 | 20 | 203 | 1.6 | 14.5 | 0.00 | 0.00 | 0.00 | 88 | 1007.6 |
| 20260506043031 | 20 | 185 | 4.8 | 16.1 | 0.00 | 0.00 | 0.00 | 88 | 1007.6 |
| 20260506041525 | 20 | 196 | 1.6 | 12.9 | 0.00 | 0.00 | 0.00 | 89 | 1007.9 |
| 20260506040028 | 20 | 199 | 1.6 | 9.7 | 0.00 | 0.00 | 0.00 | 90 | 1008.1 |
| 20260506034544 | 20 | 165 | 0.0 | 8.0 | 0.00 | 0.00 | 0.00 | 90 | 1007.9 |
| 20260506033022 | 19 | 156 | 3.2 | 14.5 | 0.00 | 0.00 | 0.00 | 91 | 1007.9 |
| 20260506031521 | 19 | 172 | 3.2 | 11.3 | 0.00 | 0.00 | 0.00 | 92 | 1008.4 |
| 20260506030019 | 19 | 219 | 0.0 | 8.0 | 0.00 | 0.00 | 0.00 | 92 | 1008.3 |
| 20260506024519 | 19 | 205 | 0.0 | 8.0 | 0.00 | 0.00 | 0.00 | 93 | 1008.3 |
| 20260506023018 | 19 | 216 | 1.6 | 9.7 | 0.00 | 0.00 | 0.00 | 93 | 1008.2 |
| 20260506021516 | 18 | 206 | 1.6 | 6.4 | 0.00 | 0.00 | 0.00 | 94 | 1008.2 |
| 20260506020014 | 18 | 244 | 0.0 | 6.4 | 0.00 | 0.00 | 0.00 | 96 | 1008.1 |
| 20260506014517 | 18 | 229 | 0.0 | 4.8 | 0.00 | 0.00 | 0.00 | 96 | 1007.9 |
| 20260506013013 | 18 | 203 | 0.0 | 6.4 | 0.00 | 0.00 | 0.00 | 97 | 1007.9 |
| 20260506011515 | 18 | 232 | 1.6 | 8.0 | 0.00 | 0.00 | 0.00 | 97 | 1007.9 |
| 20260506010010 | 18 | 229 | 0.0 | 3.2 | 0.00 | 0.00 | 0.00 | 97 | 1007.6 |
| 20260506004520 | 18 | 229 | 0.0 | 3.2 | 0.00 | 0.00 | 0.00 | 97 | 1007.9 |
| 20260506003010 | 17 | 226 | 0.0 | 4.8 | 0.00 | 0.00 | 0.00 | 97 | 1007.7 |
| 20260506001507 | 17 | 188 | 0.0 | 4.8 | 0.00 | 0.00 | 0.00 | 98 | 1007.8 |
| 20260506000006 | 17 | 229 | 0.0 | 4.8 | 0.00 | 0.00 | 0.00 | 98 | 1007.7 |
| 20260505234509 | 17 | 206 | 0.0 | 6.4 | 0.00 | 0.00 | 0.00 | 98 | 1007.9 |
| 20260505233008 | 17 | 226 | 0.0 | 3.2 | 0.00 | 0.00 | 0.00 | 98 | 1008.0 |
| 20260505231509 | 17 | 215 | 0.0 | 6.4 | 0.00 | 0.00 | 0.00 | 98 | 1007.9 |
| 20260505230006 | 17 | 231 | 0.0 | 1.6 | 0.00 | 0.00 | 0.00 | 98 | 1007.8 |
| 20260505224502 | 17 | 142 | 0.0 | 4.8 | 0.00 | 0.00 | 0.00 | 98 | 1007.8 |
| 20260505223001 | 17 | 230 | 1.6 | 4.8 | 0.00 | 0.00 | 0.00 | 98 | 1008.0 |
| 20260505221604 | 17 | 207 | 0.0 | 11.3 | 0.00 | 0.00 | 0.00 | 98 | 1008.2 |
| 20260505220106 | 17 | 226 | 1.6 | 8.0 | 0.00 | 0.00 | 0.00 | 98 | 1008.4 |
| 20260505214605 | 17 | 255 | 0.0 | 6.4 | 0.00 | 0.00 | 0.00 | 98 | 1008.5 |
| 20260505213103 | 17 | 151 | 0.0 | 6.4 | 0.00 | 0.00 | 0.00 | 98 | 1008.6 |
| 20260505211602 | 17 | 186 | 1.6 | 9.7 | 0.00 | 0.00 | 0.00 | 98 | 1008.6 |
| 20260505210056 | 17 | 235 | 1.6 | 8.0 | 0.00 | 0.00 | 0.00 | 98 | 1008.6 |
| 20260505204555 | 17 | 171 | 0.0 | 4.8 | 0.00 | 0.00 | 0.00 | 98 | 1008.5 |
| 20260505203054 | 17 | 204 | 0.0 | 8.0 | 0.00 | 0.00 | 0.00 | 98 | 1008.7 |
| 20260505201552 | 17 | 219 | 1.6 | 6.4 | 0.00 | 0.00 | 0.00 | 99 | 1008.7 |
| 20260505200051 | 17 | 222 | 0.0 | 3.2 | 0.00 | 0.00 | 0.00 | 99 | 1008.7 |
| 20260505194549 | 17 | 162 | 0.0 | 1.6 | 0.00 | 0.00 | 0.00 | 99 | 1008.7 |
| 20260505193049 | 17 | 199 | 0.0 | 6.4 | 0.00 | 0.00 | 0.00 | 98 | 1009.0 |
| 20260505191554 | 16 | 205 | 0.0 | 3.2 | 0.00 | 0.00 | 0.00 | 98 | 1009.1 |
| 20260505190043 | 16 | 204 | 0.0 | 6.4 | 0.00 | 0.00 | 0.00 | 98 | 1009.7 |
| 20260505184543 | 16 | 172 | 1.6 | 3.2 | 0.00 | 0.00 | 0.00 | 98 | 1009.7 |
| 20260505183040 | 16 | 206 | 0.0 | 11.3 | 0.00 | 0.00 | 0.00 | 98 | 1010.4 |
| 20260505181540 | 16 | 203 | 1.6 | 9.7 | 0.00 | 0.00 | 0.00 | 97 | 1010.3 |
| 20260505180049 | 16 | 215 | 3.2 | 8.0 | 0.00 | 0.00 | 0.00 | 97 | 1010.1 |
| 20260505174548 | 16 | 167 | 4.8 | 16.1 | 0.00 | 0.00 | 0.00 | 97 | 1009.9 |
| 20260505173037 | 16 | 253 | 3.2 | 11.3 | 0.00 | 0.00 | 0.00 | 97 | 1009.5 |
| 20260505171536 | 16 | 224 | 4.8 | 19.3 | 0.00 | 0.00 | 0.00 | 97 | 1010.7 |
| 20260505170036 | 15 | 158 | 4.8 | 17.7 | 0.00 | 0.00 | 0.00 | 97 | 1009.3 |
| 20260505164534 | 15 | 193 | 4.8 | 19.3 | 0.00 | 0.00 | 0.00 | 97 | 1009.8 |
| 20260505163038 | 15 | 235 | 1.6 | 9.7 | 0.00 | 0.00 | 0.00 | 96 | 1010.3 |
| 20260505161533 | 15 | 200 | 1.6 | 9.7 | 0.00 | 0.00 | 0.00 | 95 | 1010.7 |
| 20260505153035 | 15 | 223 | 0.0 | 8.0 | 0.00 | 0.00 | 0.00 | 94 | 1011.2 |
| 20260505151530 | 15 | 191 | 1.6 | 6.4 | 0.00 | 0.00 | 0.00 | 93 | 1011.1 |
| 20260505124518 | 15 | 213 | 1.6 | 8.0 | 0.00 | 0.00 | 0.00 | 85 | 1011.5 |
| 20260505123014 | 15 | 160 | 0.0 | 6.4 | 0.00 | 0.00 | 0.00 | 85 | 1011.3 |
| 20260505121514 | 14 | 213 | 0.0 | 4.8 | 0.00 | 0.00 | 0.00 | 86 | 1011.4 |
| 20260505120010 | 14 | 227 | 0.0 | 4.8 | 0.00 | 0.00 | 0.00 | 87 | 1011.0 |
| 20260505114509 | 13 | 228 | 0.0 | 1.6 | 0.00 | 0.00 | 0.00 | 88 | 1010.4 |
| 20260505113008 | 13 | 229 | 0.0 | 1.6 | 0.00 | 0.00 | 0.00 | 90 | 1010.4 |
| 20260505111508 | 13 | 228 | 0.0 | 1.6 | 0.00 | 0.00 | 0.00 | 91 | 1010.5 |
| 20260505101504 | 13 | 228 | 0.0 | 0.0 | 0.00 | 0.00 | 0.00 | 89 | 1009.9 |
| 20260505100004 | 13 | 228 | 0.0 | 0.0 | 0.00 | 0.00 | 0.00 | 87 | 1010.0 |
| 20260505094503 | 13 | 228 | 0.0 | 0.0 | 0.00 | 0.00 | 0.00 | 85 | 1010.0 |
| 20260505093003 | 13 | 228 | 0.0 | 0.0 | 0.00 | 0.00 | 0.00 | 84 | 1009.7 |
| 20260505091501 | 14 | 229 | 0.0 | 1.6 | 0.00 | 0.00 | 0.00 | 83 | 1009.5 |
| 20260505090001 | 14 | 228 | 0.0 | 3.2 | 0.00 | 0.00 | 0.00 | 83 | 1009.4 |
| 20260505084601 | 14 | 219 | 0.0 | 0.0 | 0.00 | 0.00 | 0.00 | 83 | 1009.4 |
| 20260505083117 | 14 | 219 | 0.0 | 3.2 | 0.00 | 0.00 | 0.00 | 83 | 1009.3 |
| 20260505081559 | 13 | 219 | 0.0 | 3.2 | 0.00 | 0.00 | 0.00 | 85 | 1009.2 |
| 20260505080057 | 13 | 219 | 0.0 | 0.0 | 0.00 | 0.00 | 0.00 | 85 | 1009.2 |
| 20260505074556 | 13 | 219 | 0.0 | 1.6 | 0.00 | 0.00 | 0.00 | 87 | 1009.4 |
| 20260505073056 | 12 | 219 | 0.0 | 1.6 | 0.00 | 0.00 | 0.00 | 88 | 1009.8 |
| 20260505071553 | 12 | 219 | 0.0 | 0.0 | 0.00 | 0.00 | 0.00 | 88 | 1010.3 |
| 20260505070052 | 12 | 219 | 0.0 | 1.6 | 0.00 | 0.00 | 0.00 | 88 | 1010.2 |
| 20260505064557 | 12 | 219 | 0.0 | 1.6 | 0.00 | 0.00 | 0.00 | 87 | 1011.0 |
| 20260505063051 | 12 | 219 | 0.0 | 0.0 | 0.00 | 0.00 | 0.00 | 86 | 1011.2 |
| 20260505061544 | 13 | 219 | 0.0 | 0.0 | 0.00 | 0.00 | 0.00 | 85 | 1011.1 |
| 20260505060041 | 13 | 219 | 0.0 | 0.0 | 0.00 | 0.00 | 0.00 | 84 | 1011.2 |